Location: Cortada Guamacho
(10.5667°N, 67.0833°W)
Time: 06:21:45
(UTC+00:00)

Cosmos 2228 Rocket - Pass Details

Date: 03 July 2022
Orbit: 618 x 651 km, 82.5° (Epoch: 12 August)

Event Time Altitude Azimuth Distance (km) Brightness Sun altitude
Rises 07:21:25 0° 32° (NNE) 2,916 7.4 -36.8°
Reaches altitude 10° 07:25:47 10° 73° (ENE) 2,019 6.4 -36.0°
Maximum altitude 07:26:34 10° 83° (E) 1,994 6.2 -35.8°
Drops below altitude 10° 07:27:22 10° 93° (E) 2,023 6.2 -35.7°
Enters shadow 07:28:47 - 110° (ESE) 2,202 6.2 -35.4°
